Regional Weather Roundup
Issued by NWS

Home | Current Version | Previous Version | Text Only | Print | Product List | Glossary On
Versions: 1 2 3 4 5 6 7 8 9 10 11 12 13 14 15 16 17 18 19 20 21 22 23 24 25 26 27 28 29 30 31 32 33 34 35 36 37 38 39 40 41 42 43 44 45 46 47 48 49 50
000
ASUS46 KPQR 202310
RWROR

OREGON REGIONAL WEATHER ROUNDUP
NATIONAL WEATHER SERVICE PORTLAND OR
300 PM PST SAT DEC 20 2014

NOTE: "FAIR" INDICATES FEW OR NO CLOUDS BELOW 12,000 FEET WITH
NO SIGNIFICANT WEATHER AND/OR OBSTRUCTIONS TO VISIBILITY.

ORZ001>013-210000-
NORTHWEST OREGON


CITY           SKY/WX    TMP DP  RH WIND       PRES   REMARKS
ASTORIA        LGT RAIN  56  54  93 SW21G35   29.55R
NEWPORT        LGT RAIN  55  55 100 SW24G31   29.73S
PORTLAND       LGT RAIN  53  51  93 S12G21    29.63F
VANCOUVER WA   LGT RAIN  53  50  89 VRB7      29.63F
SCAPPOOSE      LGT RAIN  52  50  93 S7        29.61R
HILLSBORO      LGT RAIN  52  51  97 S13G21    29.62S FOG
AURORA         LGT RAIN  53  51  93 S16G26    29.66F FOG
MCMINNVILLE    RAIN      54  52  93 S12       29.65R FOG
SALEM          RAIN      53  51  93 S18G29    29.67S
CORVALLIS      CLOUDY    55  52  88 S17G24    29.72R
EUGENE         RAIN      53  51  93 S18       29.77R
$$

ORZ021-028-210000-
SOUTHWEST OREGON


CITY           SKY/WX    TMP DP  RH WIND       PRES   REMARKS
NORTH BEND     CLOUDY    57  55  94 SW17G24   29.83R
BROOKINGS      RAIN      55  55 100 S18G28    29.97S VSB<1/4
ROSEBURG       LGT RAIN  57  51  80 S6        29.83F
SEXTON SUMMIT  FOG       45  45 100 S16G26    29.89R VSB<1/4
MEDFORD        LGT RAIN  48  46  93 CALM      29.93S FOG
$$

ORZ014>016-041-210000-
COLUMBIA GORGE


CITY           SKY/WX    TMP DP  RH WIND       PRES   REMARKS
TROUTDALE      LGT RAIN  46  44  93 E6        29.63F
THE DALLES     LGT RAIN  43  41  93 N3        29.69F
$$

ORZ029>031-041-044-049-050-061>064-502-503-505>511-210000-
EASTERN OREGON


CITY           SKY/WX    TMP DP  RH WIND       PRES   REMARKS
REDMOND        LGT RAIN  44  37  76 S20G28    29.75R
BEND           CLOUDY    43  37  81 S6        29.77F
PRINEVILLE     CLOUDY    46  39  76 S9        29.78R
KLAMATH FALLS  LGT RAIN  43  39  86 CALM      29.97F
LAKEVIEW       CLOUDY    37  36  93 S17G26    29.99S WCI  28
HERMISTON      LGT RAIN  45  43  93 N6        29.68F FOG
PENDLETON      LGT RAIN  47  41  80 SW5       29.71F
JOHN DAY       DRIZZLE   42  37  81 S16G24    29.82F
MEACHAM        RAIN      36  34  92 VRB5      29.74F FOG     WCI  32
LA GRANDE      CLOUDY    41  32  70 S8        29.80S
BAKER CITY     LGT RAIN  40  35  83 SE16      29.82F WCI  31
BURNS          FLURRIES  34  32  92 S7        29.89F WCI  28
ROME             N/A     40  36  86 S13       29.92F WCI  32
ONTARIO        LGT RAIN  45  41  86 S9        29.94S
$$



USA.gov is the U.S. government's official web portal to all federal, state and local government web resources and services.